This is the latest recevied weather packets stored in our database for station/object KB3UQE. If no packets are shown the sender has not sent any weather packets the latest 10 day(s).
| Time | Temp. | Humidity | Pressure | Rain* | Wind** | Luminosity | Snow |
|---|---|---|---|---|---|---|---|
| 1777780914 | 33.33° C | 27% | 1012.1 hPa | - | - | - | - |
| 1777780889 | 33.89° C | 27% | 1012.3 hPa | - | - | - | - |
| 1777779474 | 33.89° C | 27% | 1012.3 hPa | - | - | - | - |
| 1777779449 | 33.89° C | 26% | 1012.3 hPa | - | - | - | - |
| 1777778034 | 33.89° C | 26% | 1012.3 hPa | - | - | - | - |
| 1777778009 | 34.44° C | 27% | 1012.5 hPa | - | - | - | - |
| 1777776593 | 34.44° C | 27% | 1012.5 hPa | - | - | - | - |
| 1777776569 | 35° C | 25% | 1012.5 hPa | - | - | - | - |
| 1777775308 | 35° C | 25% | 1012.5 hPa | - | - | - | - |
| 1777774073 | 35° C | 25% | 1012.5 hPa | - | - | - | - |
| 1777774048 | 13.89° C | 36% | 1010.9 hPa | - | - | - | - |
| 1777772968 | 13.89° C | 36% | 1010.9 hPa | - | - | - | - |
| 1777772490 | 13.89° C | 36% | 1010.9 hPa | - | - | - | - |
| 1777770322 | 13.89° C | 36% | 1010.9 hPa | - | - | - | - |
| 1777763928 | 13.89° C | 36% | 1010.9 hPa | - | - | - | - |
| 1777763901 | 15° C | 34% | 1010.6 hPa | - | - | - | - |
| 1777762488 | 15° C | 34% | 1010.6 hPa | - | - | - | - |
| 1777762461 | 16.11° C | 33% | 1010.6 hPa | - | - | - | - |
| 1777761045 | 16.11° C | 33% | 1010.6 hPa | - | - | - | - |
| 1777761020 | 17.78° C | 30% | 1010.5 hPa | - | - | - | - |
| 1777759605 | 17.78° C | 30% | 1010.5 hPa | - | - | - | - |
| 1777759580 | 35° C | 23% | 1010.5 hPa | - | - | - | - |
| 1777758165 | 35° C | 23% | 1010.5 hPa | - | - | - | - |
| 1777758140 | 33.89° C | 25% | 1010.4 hPa | - | - | - | - |
| 1777756725 | 33.89° C | 25% | 1010.4 hPa | - | - | - | - |
* Rain since midnight (hover to see other rain measurements)
** Current wind speed in m/s (hover to see current wind gust speed)